Regional Weather Roundup
Issued by NWS

Home | Current Version | Previous Version | Graphics & Text | Print | Product List | Glossary On
Versions: 1 2 3 4 5 6 7 8 9 10 11 12 13 14 15 16 17 18 19 20 21 22 23 24 25 26 27 28 29 30 31 32 33 34 35 36 37 38 39 40 41 42 43 44 45 46 47 48 49 50
801
ASUS43 KDTX 222210
RWRMI
MICHIGAN HOURLY REGIONAL WEATHER ROUNDUP
NATIONAL WEATHER SERVICE DETROIT/PONTIAC MI
600 PM EDT WED MAR 22 2017

NOTE: "FAIR" INDICATES FEW OR NO CLOUDS BELOW 12,000 FEET WITH NO
SIGNIFICANT WEATHER AND/OR OBSTRUCTION TO VISIBILITY.

MIZ047>049-052>055-059>063-066>070-074>076-081>083-222300-
SOUTHEAST LOWER MICHIGAN

CITY           SKY/WX    TMP DP  RH WIND       PRES   REMARKS
ADRIAN         SUNNY     35  12  38 E5        30.53F WCI  31
ALMA           SUNNY     33   7  33 S7        30.54S WCI  27
ANN ARBOR      SUNNY     36   7  29 CALM      30.52S
BAD AXE        SUNNY     29   5  37 NW5       30.55F WCI  23
CARO           SUNNY     30   9  42 N6        30.55F WCI  24
DETROIT CITY   SUNNY     32  13  45 SE10      30.54F WCI  24
DETROIT        MOSUNNY   38  10  31 NE10      30.54F WCI  31
FLINT          SUNNY     34   9  35 N9        30.54F WCI  27
GROSSE ILE     SUNNY     32  17  54 S10       30.54S WCI  23
HILLSDALE      SUNNY     34  10  37 CALM      30.49F
HOWELL         SUNNY     33   5  30 N3        30.52S

CITY           SKY/WX    TMP DP  RH WIND       PRES   REMARKS
JACKSON        SUNNY     35   9  33 E5        30.51F WCI  31
LAMBERTVILLE   SUNNY     36  16  44 CALM      30.54S
LANSING        SUNNY     35   5  28 E3        30.53F
LAPEER         FAIR      32   9  37 CALM      30.53S
MASON          SUNNY     34  13  41 NE5       30.52F WCI  30
MONROE         SUNNY     32  17  55 S8        30.55R WCI  25
MT. CLEMENS    MOSUNNY   33  11  40 N8        30.53F WCI  26
PONTIAC        MOSUNNY   35   7  31 N8        30.50F WCI  29
PORT HOPE        N/A     25  11  55 NE6       30.55F WCI  18
PORT HURON     SUNNY     27  12  54 NE7       30.56F WCI  19
TRI CITIES     SUNNY     32   7  35 SE9       30.55F WCI  24
MIDLAND        FAIR      35   6  29 S5        30.52F WCI  31
TROY           SUNNY     36   6  28 E5        30.54F WCI  32
SAGINAW HB     SUNNY     32  -6  19 E6        30.56S WCI  26
$$
MIZ043>046-050>051-056>058-064>065-071>073-077>080-222300-
SOUTHWEST LOWER MICHIGAN

CITY           SKY/WX    TMP DP  RH WIND       PRES   REMARKS
BATTLE CREEK   SUNNY     38   9  30 VRB5      30.51F WCI  34
BENTON HARBOR  SUNNY     33  17  51 VRB7      30.53F WCI  27
BIG RAPIDS     SUNNY     35   2  24 CALM      30.50S
COLDWATER      SUNNY     36   8  31 N3        30.50F
FREMONT        FAIR      36  10  33 NW3       30.51S
HOLLAND        SUNNY     34  19  54 NW8       30.53F WCI  27
GRAND RAPIDS   MOSUNNY   36  11  35 S9        30.52F WCI  29
IONIA          FAIR      33   7  33 SE6       30.52F WCI  28
KALAMAZOO      SUNNY     38   7  27 SE3       30.51F
LUDINGTON      SUNNY     31  17  56 N6        30.54F WCI  25
MARSHALL       SUNNY     36   6  29 SE3       30.51S
MOUNT PLEASANT SUNNY     34   4  28 S8        30.52S WCI  27
MUSKEGON       MOSUNNY   33  15  47 W10       30.55S WCI  25
SOUTH HAVEN    SUNNY     32  18  55 N7        30.53F WCI  26
$$
MIZ016>042-222300-
NORTHERN LOWER MICHIGAN

CITY           SKY/WX    TMP DP  RH WIND       PRES   REMARKS
ALPENA         SUNNY     33   1  25 VRB3      30.53F
BEAVER ISLAND  SUNNY     27  13  55 SW9       30.55S WCI  18
BELLAIRE       SUNNY     30   9  41 CALM      30.55F
CADILLAC       SUNNY     35  -1  20 NW3       30.47R
CHARLEVOIX     SUNNY     27  12  52 W5        30.59S WCI  22
FRANKFORT      SUNNY     28  13  53 N5        30.55F WCI  23
GAYLORD        SUNNY     32   2  27 VRB5      30.48F WCI  27
GRAYLING       SUNNY     33  -2  22 CALM      30.49F
HARBOR SPRINGS SUNNY     25  13  61 SW10      30.54F WCI  15
HOUGHTON LAKE  SUNNY     32  -1  24 SW6       30.50F WCI  26
MANISTEE       SUNNY     29  17  61 NW9       30.54F WCI  20
OSCODA         SUNNY     28  11  50 SE7       30.54F WCI  21
PELLSTON       SUNNY     30   2  30 NW9       30.54F WCI  22
ROGERS CITY    SUNNY     29   6  37 N7        30.54F WCI  21
TRAVERSE CITY  MOSUNNY   29  10  45 N7        30.55S WCI  22
$$
MIZ007>008-015-222300-
EASTERN UPPER MICHIGAN

CITY           SKY/WX    TMP DP  RH WIND       PRES   REMARKS
KINROSS        SUNNY     24  11  57 N12       30.52S WCI  13
MACKINAC ISLAN SUNNY     25  13  59 SW5       30.53F WCI  20
NEWBERRY       SUNNY     29  11  46 N6        30.50S WCI  23
S. S. MARIE    SUNNY     26   8  46 NW10      30.52F WCI  16
MUNISING         N/A     27  16  63 NE12      30.51F WCI  17
$$
MIZ004>006-011>014-085-222300-
CENTRAL UPPER MICHIGAN

CITY           SKY/WX    TMP DP  RH WIND       PRES   REMARKS
MANISTIQUE     SUNNY     27  18  69 S15       30.53S WCI  15
ESCANABA       SUNNY     28  13  53 S12G21    30.54F WCI  18
MENOMINEE        N/A    N/A N/A N/A MISG        N/A
SAWYER-GWINN   SUNNY     32  12  43 NE6       30.46F WCI  26
$$
MIZ001>003-009>011-084-222300-
WESTERN UPPER MICHIGAN

CITY           SKY/WX    TMP DP  RH WIND       PRES   REMARKS
IRON MOUNTAIN  SUNNY     36   3  25 S6        30.44F WCI  31
HOUGHTON       SUNNY     30  11  45 N6        30.45F WCI  24
COPPER HARBOR    N/A     26  11  52 NE5       30.51F WCI  20
IRONWOOD       SUNNY     35   4  27 SW8       30.41F WCI  29
$$

ABBREVIATIONS USED IN REMARKS
   TC - TEMPERATURE IN CELSIUS
  WCI - WIND CHILL INDEX
   HX - HEAT INDEX
  VSB - VISIBILITY





USA.gov is the U.S. government's official web portal to all federal, state and local government web resources and services.